Lake Wenatchee to Mission Ridge
Dirtyface Mt
Latest observation 08/31 21:00 PDT
| Time (PDT) | Temp °F 5980' | RH % 5980' | Min mph 5980' | Spd mph 5980' | Gust mph 5980' | Dir ° 5980' |
|---|---|---|---|---|---|---|
| 08/31 21:00 | 55 | 48 | 8 | 12 | 17 | 99 |
| 08/31 20:00 | 55 | 49 | 6 | 11 | 16 | 118 |
| 08/31 19:00 | 56 | 49 | 4 | 7 | 11 | 143 |
| 08/31 18:00 | 58 | 47 | 3 | 6 | 10 | 143 |
| 08/31 17:00 | 62 | 41 | 3 | 6 | 11 | 155 |
| 08/31 16:00 | 61 | 44 | 3 | 7 | 11 | 145 |
| 08/31 15:00 | 61 | 46 | 4 | 7 | 14 | 156 |
| 08/31 14:00 | 58 | 50 | 4 | 8 | 13 | 134 |
| 08/31 13:00 | 56 | 53 | 4 | 9 | 15 | 133 |
| 08/31 12:00 | 54 | 54 | 4 | 10 | 14 | 130 |
| 08/31 11:00 | 52 | 60 | 6 | 13 | 18 | 107 |
| 08/31 10:00 | 50 | 66 | 8 | 13 | 17 | 89 |
| 08/31 09:00 | 49 | 68 | 8 | 11 | 15 | 83 |
| 08/31 08:00 | 47 | 73 | 8 | 12 | 15 | 95 |
| 08/31 07:00 | 46 | 77 | 10 | 12 | 16 | 95 |
| 08/31 06:00 | 45 | 78 | 12 | 15 | 17 | 105 |
| 08/31 05:00 | 46 | 75 | 10 | 12 | 16 | 96 |
| 08/31 04:00 | 47 | 72 | 8 | 11 | 13 | 110 |
| 08/31 03:00 | 47 | 73 | 4 | 8 | 13 | 114 |
| 08/31 02:00 | 49 | 68 | 1 | 4 | 8 | 161 |
| 08/31 01:00 | 48 | 69 | 5 | 8 | 10 | 111 |
| 08/31 00:00 | 49 | 68 | 4 | 6 | 9 | 114 |
| 08/30 23:00 | 49 | 69 | 1 | 5 | 7 | 66 |
| 08/30 22:00 | 48 | 72 | 2 | 5 | 9 | 359 |
| 08/30 21:00 | 47 | 76 | 2 | 5 | 8 | 325 |
| 08/30 20:00 | 46 | 78 | 4 | 7 | 15 | 297 |
| 08/30 19:00 | 46 | 78 | 7 | 14 | 25 | 272 |
| 08/30 18:00 | 47 | 77 | 11 | 20 | 35 | 256 |
| 08/30 17:00 | 48 | 73 | 10 | 25 | 40 | 242 |
| 08/30 16:00 | 51 | 65 | 8 | 14 | 28 | 254 |
| 08/30 15:00 | 50 | 66 | 8 | 15 | 25 | 235 |
| 08/30 14:00 | 49 | 67 | 7 | 16 | 28 | 238 |
| 08/30 13:00 | 47 | 69 | 6 | 13 | 25 | 244 |
| 08/30 12:00 | 47 | 69 | 5 | 10 | 23 | 250 |
| 08/30 11:00 | 43 | 76 | 4 | 8 | 17 | 248 |
| 08/30 10:00 | 43 | 72 | 3 | 9 | 16 | 296 |
| 08/30 09:00 | 40 | 76 | 3 | 10 | 18 | 289 |
| 08/30 08:00 | 37 | 83 | 8 | 16 | 23 | 284 |
| 08/30 07:00 | 36 | 86 | 11 | 19 | 26 | 289 |
| 08/30 06:00 | 36 | 86 | 13 | 22 | 28 | 287 |
| 08/30 05:00 | 36 | 84 | 14 | 21 | 28 | 284 |
| 08/30 04:00 | 36 | 86 | 16 | 23 | 28 | 284 |
| 08/30 03:00 | 37 | 83 | 16 | 24 | 30 | 286 |
| 08/30 02:00 | 36 | 84 | 13 | 22 | 30 | 281 |
| 08/30 01:00 | 37 | 80 | 11 | 19 | 29 | 280 |
| 08/30 00:00 | 37 | 80 | 6 | 17 | 28 | 275 |
| 08/29 23:00 | 38 | 76 | 3 | 13 | 28 | 266 |
| 08/29 22:00 | 38 | 72 | 6 | 13 | 26 | 270 |
| 08/29 21:00 | 38 | 74 | 1 | 8 | 23 | 266 |
| 08/29 20:00 | 38 | 79 | 2 | 8 | 27 | 265 |
| 08/29 19:00 | 41 | 72 | 5 | 16 | 28 | 243 |
| 08/29 18:00 | 42 | 72 | 6 | 16 | 35 | 237 |
| 08/29 17:00 | 40 | 83 | 7 | 17 | 28 | 226 |
| 08/29 16:00 | 40 | 87 | 6 | 17 | 34 | 229 |
| 08/29 15:00 | 40 | 88 | 6 | 19 | 37 | 226 |
| 08/29 14:00 | 39 | 92 | 6 | 19 | 38 | 229 |
| 08/29 13:00 | 40 | 90 | 6 | 19 | 35 | 231 |
| 08/29 12:00 | 38 | 95 | 4 | 16 | 38 | 243 |
| 08/29 11:00 | 38 | 96 | 4 | 12 | 27 | 231 |
| 08/29 10:00 | 38 | 97 | 6 | 17 | 33 | 239 |
| 08/29 09:00 | 38 | 97 | 13 | 21 | 35 | 264 |
| 08/29 08:00 | 38 | 97 | 16 | 24 | 37 | 270 |
| 08/29 07:00 | 37 | 92 | 15 | 23 | 32 | 283 |
| 08/29 06:00 | 38 | 88 | 16 | 26 | 35 | 279 |
| 08/29 05:00 | 39 | 89 | 21 | 29 | 37 | 276 |
| 08/29 04:00 | 40 | 89 | 13 | 23 | 33 | 270 |
| 08/29 03:00 | 41 | 89 | 16 | 24 | 35 | 276 |
| 08/29 02:00 | 41 | 86 | 19 | 29 | 39 | 284 |
| 08/29 01:00 | 41 | 88 | 13 | 28 | 38 | 290 |
| 08/29 00:00 | 41 | 87 | 18 | 26 | 32 | 288 |
| 08/28 23:00 | 42 | 85 | 18 | 25 | 32 | 288 |
| 08/28 22:00 | 43 | 84 | 18 | 26 | 35 | 282 |
| 08/28 21:00 | 44 | 82 | 15 | 27 | 36 | 275 |
| 08/28 20:00 | 46 | 77 | 16 | 25 | 38 | 273 |
| 08/28 19:00 | 50 | 64 | 16 | 26 | 37 | 245 |
| 08/28 18:00 | 53 | 55 | 16 | 27 | 37 | 240 |
| 08/28 17:00 | 55 | 50 | 15 | 23 | 37 | 235 |
| 08/28 16:00 | 55 | 49 | 9 | 19 | 29 | 231 |
| 08/28 15:00 | 56 | 50 | 8 | 17 | 30 | 229 |
| 08/28 14:00 | 55 | 53 | 10 | 17 | 29 | 228 |
| 08/28 13:00 | 54 | 57 | 5 | 14 | 26 | 224 |
| 08/28 12:00 | 53 | 61 | 4 | 7 | 14 | 228 |
| 08/28 11:00 | 51 | 66 | 0 | 4 | 10 | 245 |
| 08/28 10:00 | 50 | 59 | 1 | 4 | 11 | 281 |
| 08/28 09:00 | 47 | 70 | 1 | 9 | 18 | 294 |
| 08/28 08:00 | 43 | 76 | 11 | 16 | 20 | 281 |
| 08/28 07:00 | 45 | 69 | 7 | 15 | 20 | 279 |
| 08/28 06:00 | 44 | 72 | 2 | 8 | 17 | 304 |
| 08/28 05:00 | 44 | 74 | 4 | 11 | 22 | 293 |
| 08/28 04:00 | 43 | 83 | 6 | 12 | 22 | 269 |
| 08/28 03:00 | 43 | 85 | 4 | 12 | 23 | 276 |
| 08/28 02:00 | 43 | 84 | 10 | 16 | 28 | 273 |
| 08/28 01:00 | 42 | 92 | 11 | 20 | 27 | 284 |
| 08/28 00:00 | 43 | 85 | 6 | 15 | 24 | 277 |
| 08/27 23:00 | 44 | 83 | 5 | 12 | 23 | 265 |
| 08/27 22:00 | 44 | 88 | 7 | 13 | 25 | 269 |
| 08/27 21:00 | 44 | 88 | 7 | 17 | 35 | 239 |
| 08/27 20:00 | 45 | 83 | 8 | 15 | 30 | 232 |
| 08/27 19:00 | 47 | 74 | 7 | 16 | 28 | 234 |
| 08/27 18:00 | 47 | 69 | 10 | 22 | 47 | 231 |
| 08/27 17:00 | 47 | 70 | 13 | 24 | 40 | 229 |
| 08/27 16:00 | 49 | 71 | 10 | 21 | 41 | 227 |
| 08/27 15:00 | 53 | 60 | 8 | 23 | 39 | 226 |
| 08/27 14:00 | 53 | 58 | 7 | 19 | 43 | 227 |
| 08/27 13:00 | 53 | 56 | 4 | 15 | 33 | 230 |
| 08/27 12:00 | 52 | 50 | 5 | 14 | 28 | 232 |
| 08/27 11:00 | 49 | 60 | 6 | 16 | 33 | 230 |
| 08/27 10:00 | 48 | 66 | 3 | 12 | 23 | 236 |
| 08/27 09:00 | 49 | 68 | 4 | 12 | 25 | 246 |
| 08/27 08:00 | 47 | 75 | 5 | 13 | 30 | 244 |
| 08/27 07:00 | 48 | 74 | 6 | 15 | 29 | 255 |
| 08/27 06:00 | 48 | 76 | 9 | 18 | 33 | 257 |
| 08/27 05:00 | 49 | 72 | 6 | 18 | 37 | 261 |
| 08/27 04:00 | 50 | 71 | 7 | 19 | 42 | 249 |
| 08/27 03:00 | 50 | 69 | 6 | 19 | 40 | 250 |
| 08/27 02:00 | 51 | 66 | 10 | 21 | 45 | 244 |
| 08/27 01:00 | 52 | 62 | 10 | 20 | 35 | 258 |
| 08/27 00:00 | 53 | 64 | 18 | 29 | 40 | 270 |
| 08/26 23:00 | 54 | 61 | 19 | 29 | 42 | 276 |
| 08/26 22:00 | 54 | 60 | 19 | 28 | 37 | 279 |
| 08/26 21:00 | 55 | 56 | 18 | 32 | 42 | 281 |
| 08/26 20:00 | 56 | 51 | 17 | 30 | 45 | 278 |
| 08/26 19:00 | 57 | 39 | 16 | 28 | 50 | 265 |
| 08/26 18:00 | 60 | 33 | 18 | 26 | 42 | 263 |
| 08/26 17:00 | 62 | 37 | 17 | 25 | 40 | 262 |
| 08/26 16:00 | 64 | 39 | 17 | 29 | 45 | 246 |
| 08/26 15:00 | 65 | 43 | 13 | 24 | 36 | 234 |
| 08/26 14:00 | 70 | 36 | 9 | 15 | 25 | 222 |
| 08/26 13:00 | 72 | 24 | 6 | 8 | 15 | 195 |
| 08/26 12:00 | 71 | 20 | 5 | 8 | 11 | 195 |
| 08/26 11:00 | 71 | 19 | 2 | 6 | 11 | 162 |
| 08/26 10:00 | 70 | 18 | 0 | 3 | 8 | 148 |
| 08/26 09:00 | 69 | 17 | 0 | 0 | 4 | 225 |
| 08/26 08:00 | 67 | 13 | 0 | 4 | 12 | 286 |
| 08/26 07:00 | 65 | 13 | 8 | 17 | 24 | 248 |
| 08/26 06:00 | 65 | 13 | 7 | 15 | 25 | 231 |
| 08/26 05:00 | 64 | 13 | 10 | 16 | 21 | 239 |
| 08/26 04:00 | 64 | 20 | 7 | 13 | 18 | 234 |
| 08/26 03:00 | 63 | 32 | 4 | 9 | 14 | 243 |
| 08/26 02:00 | 62 | 37 | 2 | 6 | 12 | 244 |
| 08/26 01:00 | 64 | 37 | 0 | 2 | 6 | 218 |
| 08/26 00:00 | 64 | 36 | 0 | 2 | 6 | 313 |
| 08/25 23:00 | 64 | 38 | 0 | 11 | 21 | 264 |
| 08/25 22:00 | 62 | 46 | 13 | 19 | 24 | 277 |
| 08/25 21:00 | 63 | 50 | 4 | 14 | 24 | 253 |
| 08/25 20:00 | 65 | 38 | 5 | 10 | 16 | 223 |
| 08/25 19:00 | 71 | 22 | 4 | 7 | 10 | 185 |
| 08/25 18:00 | 74 | 24 | 4 | 7 | 14 | 158 |
| 08/25 17:00 | 69 | 29 | 4 | 8 | 14 | 142 |
| 08/25 16:00 | 70 | 29 | 3 | 6 | 12 | 151 |
| 08/25 15:00 | 71 | 29 | 3 | 6 | 13 | 159 |
| 08/25 14:00 | 69 | 29 | 4 | 6 | 12 | 141 |
| 08/25 13:00 | 70 | 29 | 3 | 6 | 11 | 129 |
| 08/25 12:00 | 66 | 33 | 3 | 7 | 12 | 126 |
| 08/25 11:00 | 65 | 33 | 4 | 8 | 13 | 137 |
| 08/25 10:00 | 64 | 35 | 6 | 10 | 13 | 117 |
| 08/25 09:00 | 63 | 36 | 9 | 12 | 16 | 113 |
| 08/25 08:00 | 62 | 37 | 9 | 13 | 16 | 101 |
| 08/25 07:00 | 59 | 42 | 10 | 12 | 14 | 97 |
| 08/25 06:00 | 58 | 44 | 10 | 12 | 14 | 99 |
| 08/25 05:00 | 58 | 44 | 11 | 13 | 15 | 110 |
| 08/25 04:00 | 58 | 46 | 11 | 13 | 16 | 115 |
| 08/25 03:00 | 59 | 46 | 11 | 13 | 15 | 106 |
| 08/25 02:00 | 59 | 42 | 11 | 13 | 15 | 98 |
| 08/25 01:00 | 59 | 42 | 9 | 12 | 13 | 99 |
| 08/25 00:00 | 59 | 47 | 7 | 10 | 13 | 115 |
| 08/24 23:00 | 59 | 46 | 6 | 9 | 11 | 122 |
| 08/24 22:00 | 59 | 44 | 8 | 11 | 16 | 102 |

